[ hide orbit diagram ]
For accurate long-term ephemerides, please instead use our Horizons system.This orbit viewer was implemented using two-body methods, and hence should not be used for determining accurate long-term trajectories (over several years or decades) or planetary encounter circumstances.
Orbital Elements at Epoch 2459000.5 (2020-May-31.0) TDB
Reference: JPL 20 (heliocentric ecliptic J2000)
Element | Value | Uncertainty (1-sigma) | Units |
e | .3432280693104614 | 3.6598e-08 | |
a | 2.610781693289902 | 1.152e-08 | au |
q | 1.714688133310912 | 9.8278e-08 | au |
i | 5.856576096912621 | 3.6347e-06 | deg |
node | 130.8510565052944 | 4.1584e-05 | deg |
peri | 272.9997188944109 | 4.2033e-05 | deg |
M | 122.8680739408616 | 5.2909e-06 | deg |
tp | 2458474.614962207845 (2018-Dec-22.11496221) | 2.0997e-05 | TDB |
period | 1540.82836601067 4.22 | 1.0199e-05 2.792e-08 | d yr |
n | .2336405585081935 | 1.5464e-09 | deg/d |
Q | 3.506875253268892 | 1.5474e-08 | au |
|
| | Orbit Determination Parameters
Additional Information
|
[ show covariance matrix ]
Physical Parameter Table
Parameter |
Symbol |
Value |
Units |
Sigma |
Reference |
Notes |
absolute magnitude |
H |
15.9 |
|
n/a |
MPO469113 |
|
rotation period |
rot_per |
5.67151 |
h |
n/a |
LCDB (Rev. 2020-October); Warner et al., 2009 |
Result based on less than full coverage, so that the period may be wrong by 30 percent or so. Published Reference List: [Pal, A.; Szakats, R.; Kiss, C.; Bodi, A.; et al. (2019) Ap. J. Supl. Ser. 247, id.26.] |
|
109058 (2001 QV17) Discovered 2001-Aug-16 by LINEAR at Socorro |
Reference: 20051019/Numbers.arc | Last Updated: 2005-10-26 |
|
[ show close-approach data ]
Alternate Designations
2001 QV17 = 1980 TB2 = 1997 YU4 |
|
|